Meteo pe oră la Dziewietlin

Astăzi, 2 Martie, Marţi

Timp Temperatura Precipitaţii Vânt Presiune Umiditate
00:00 +3°C° 0 mm 1 m/s 761 mmHg 92%
01:00 +2°C° 0 mm 1 m/s 761 mmHg 92%
02:00 +2°C° 0 mm 1 m/s 761 mmHg 92%
03:00 +1°C° 0 mm 2 m/s 760 mmHg 92%
04:00 +1°C° 0 mm 2 m/s 760 mmHg 92%
05:00 +1°C° 0 mm 2 m/s 760 mmHg 91%
06:00 +2°C° 0 mm 1 m/s 760 mmHg 91%
07:00 +2°C° 0 mm 1 m/s 760 mmHg 91%
08:00 +3°C° 0 mm 2 m/s 760 mmHg 85%
09:00 +5°C° 0 mm 2 m/s 760 mmHg 78%
10:00 +6°C° 0 mm 2 m/s 760 mmHg 72%
11:00 +8°C° 0 mm 2 m/s 760 mmHg 67%
12:00 +9°C° 0 mm 3 m/s 760 mmHg 62%
13:00 +11°C° 0 mm 3 m/s 760 mmHg 57%
14:00 +12°C° 0 mm 2 m/s 760 mmHg 58%
15:00 +12°C° 0 mm 2 m/s 759 mmHg 58%
16:00 +12°C° 0 mm 2 m/s 759 mmHg 59%
17:00 +9°C° 0 mm 2 m/s 759 mmHg 64%
18:00 +8°C° 0 mm 2 m/s 759 mmHg 69%
19:00 +7°C° 0 mm 1 m/s 759 mmHg 74%
20:00 +7°C° 0 mm 1 m/s 759 mmHg 76%
21:00 +6°C° 0 mm 1 m/s 759 mmHg 78%
22:00 +6°C° 0 mm 1 m/s 759 mmHg 80%
23:00 +5°C° 0 mm 1 m/s 759 mmHg 81%

Mâine, 3 Martie, Miercuri

Timp Temperatura Precipitaţii Vânt Presiune Umiditate
00:00 +4°C° 0 mm 0 m/s 759 mmHg 81%
01:00 +4°C° 0 mm 0 m/s 759 mmHg 82%
02:00 +3°C° 0 mm 0 m/s 759 mmHg 82%
03:00 +3°C° 0 mm 0 m/s 758 mmHg 83%
04:00 +4°C° 0 mm 1 m/s 758 mmHg 83%
05:00 +3°C° 0 mm 1 m/s 758 mmHg 84%
06:00 +3°C° 0 mm 1 m/s 758 mmHg 84%
07:00 +3°C° 0 mm 1 m/s 757 mmHg 85%
08:00 +5°C° 0 mm 1 m/s 757 mmHg 78%
09:00 +7°C° 0 mm 1 m/s 757 mmHg 72%
10:00 +9°C° 0 mm 1 m/s 757 mmHg 65%
11:00 +10°C° 0 mm 1 m/s 756 mmHg 61%
12:00 +11°C° 0 mm 1 m/s 756 mmHg 56%
13:00 +13°C° 0 mm 1 m/s 755 mmHg 52%
14:00 +13°C° 0 mm 1 m/s 755 mmHg 52%
15:00 +13°C° 0 mm 1 m/s 754 mmHg 52%
16:00 +13°C° 0 mm 1 m/s 753 mmHg 52%
17:00 +12°C° 0 mm 2 m/s 753 mmHg 56%
18:00 +9°C° 0 mm 2 m/s 753 mmHg 60%
19:00 +8°C° 0 mm 2 m/s 752 mmHg 64%
20:00 +7°C° 0 mm 2 m/s 752 mmHg 67%
21:00 +6°C° 0 mm 2 m/s 751 mmHg 70%
22:00 +5°C° 0 mm 2 m/s 751 mmHg 72%
23:00 +4°C° 0 mm 3 m/s 750 mmHg 74%

Poimâine, 4 Martie, Joi

Timp Temperatura Precipitaţii Vânt Presiune Umiditate
00:00 +4°C° 0 mm 3 m/s 750 mmHg 75%
01:00 +4°C° 0 mm 3 m/s 749 mmHg 76%
02:00 +4°C° 0 mm 3 m/s 749 mmHg 78%
03:00 +3°C° 0 mm 3 m/s 748 mmHg 79%
04:00 +3°C° 0 mm 3 m/s 748 mmHg 81%
05:00 +3°C° 0 mm 3 m/s 747 mmHg 83%
06:00 +3°C° 0 mm 3 m/s 747 mmHg 84%
07:00 +3°C° 0 mm 3 m/s 747 mmHg 86%
08:00 +4°C° 0 mm 4 m/s 746 mmHg 82%
09:00 +6°C° 0 mm 4 m/s 746 mmHg 79%
10:00 +7°C° 0 mm 5 m/s 746 mmHg 75%
11:00 +8°C° 0 mm 5 m/s 745 mmHg 72%
12:00 +9°C° 0 mm 5 m/s 745 mmHg 69%
13:00 +10°C° 0 mm 5 m/s 745 mmHg 66%
14:00 +9°C° 0 mm 5 m/s 744 mmHg 65%
15:00 +10°C° 0 mm 4 m/s 744 mmHg 65%
16:00 +10°C° 0 mm 4 m/s 743 mmHg 64%
17:00 +9°C° 0.3 mm 3 m/s 743 mmHg 71%
18:00 +8°C° 0.3 mm 3 m/s 743 mmHg 78%
19:00 +7°C° 0.3 mm 2 m/s 743 mmHg 85%
20:00 +5°C° 0.3 mm 3 m/s 742 mmHg 85%
21:00 +5°C° 0.3 mm 3 m/s 742 mmHg 85%
22:00 +5°C° 0.3 mm 3 m/s 742 mmHg 85%
23:00 +4°C° 0.4 mm 3 m/s 742 mmHg 87%

5 Martie, Vineri

Timp Temperatura Precipitaţii Vânt Presiune Umiditate
00:00 +3°C° 0.4 mm 4 m/s 742 mmHg 90%
01:00 +3°C° 0.4 mm 4 m/s 742 mmHg 93%
02:00 +1°C° 0.2 mm 4 m/s 742 mmHg 92%
03:00 +1°C° 0.2 mm 4 m/s 742 mmHg 92%
04:00 0°C° 0.2 mm 4 m/s 743 mmHg 92%
05:00 -1°C° 0.1 mm 4 m/s 743 mmHg 91%
06:00 -2°C° 0.1 mm 5 m/s 744 mmHg 90%
07:00 -2°C° 0.1 mm 5 m/s 744 mmHg 89%
08:00 -2°C° 0 mm 5 m/s 745 mmHg 82%
09:00 -1°C° 0 mm 5 m/s 746 mmHg 76%
10:00 -1°C° 0 mm 5 m/s 746 mmHg 69%
11:00 0°C° 0 mm 5 m/s 747 mmHg 64%
12:00 0°C° 0 mm 5 m/s 748 mmHg 59%
13:00 +1°C° 0 mm 5 m/s 748 mmHg 55%
14:00 +1°C° 0 mm 5 m/s 748 mmHg 53%
15:00 +1°C° 0 mm 4 m/s 748 mmHg 51%
16:00 0°C° 0 mm 4 m/s 749 mmHg 49%
17:00 +1°C° 0 mm 3 m/s 749 mmHg 54%
18:00 0°C° 0 mm 3 m/s 750 mmHg 59%
19:00 -1°C° 0 mm 2 m/s 750 mmHg 64%
20:00 -1°C° 0 mm 2 m/s 751 mmHg 66%
21:00 -1°C° 0 mm 2 m/s 752 mmHg 68%
22:00 -1°C° 0 mm 2 m/s 752 mmHg 69%
23:00 -2°C° 0 mm 2 m/s 753 mmHg 71%

6 Martie, Sâmbătă

Timp Temperatura Precipitaţii Vânt Presiune Umiditate
00:00 -2°C° 0 mm 2 m/s 753 mmHg 72%
01:00 -3°C° 0 mm 2 m/s 753 mmHg 74%
02:00 -3°C° 0 mm 2 m/s 754 mmHg 74%
03:00 -3°C° 0 mm 2 m/s 754 mmHg 75%
04:00 -3°C° 0 mm 2 m/s 754 mmHg 75%
05:00 -3°C° 0 mm 2 m/s 755 mmHg 75%
06:00 -3°C° 0 mm 2 m/s 755 mmHg 75%
07:00 -3°C° 0 mm 2 m/s 756 mmHg 75%
08:00 -2°C° 0 mm 2 m/s 756 mmHg 68%
09:00 -1°C° 0 mm 2 m/s 757 mmHg 61%
10:00 +1°C° 0 mm 2 m/s 757 mmHg 53%
11:00 +1°C° 0.1 mm 2 m/s 757 mmHg 51%
12:00 +2°C° 0.1 mm 2 m/s 758 mmHg 48%
13:00 +3°C° 0.1 mm 2 m/s 758 mmHg 46%
14:00 +1°C° 0.1 mm 3 m/s 758 mmHg 46%
15:00 +1°C° 0.1 mm 3 m/s 758 mmHg 47%
16:00 +1°C° 0.1 mm 3 m/s 758 mmHg 48%
17:00 +1°C° 0 mm 2 m/s 758 mmHg 52%
18:00 -1°C° 0 mm 2 m/s 758 mmHg 55%
19:00 0°C° 0 mm 1 m/s 759 mmHg 59%
20:00 0°C° 0 mm 1 m/s 759 mmHg 59%
21:00 0°C° 0 mm 1 m/s 759 mmHg 58%
22:00 -2°C° 0 mm 2 m/s 759 mmHg 58%
23:00 -3°C° 0 mm 2 m/s 759 mmHg 58%

7 Martie, Duminică

Timp Temperatura Precipitaţii Vânt Presiune Umiditate
00:00 -3°C° 0 mm 2 m/s 759 mmHg 59%
01:00 -3°C° 0 mm 2 m/s 759 mmHg 59%
02:00 -4°C° 0 mm 3 m/s 759 mmHg 59%
03:00 -4°C° 0 mm 3 m/s 759 mmHg 59%
04:00 -4°C° 0 mm 3 m/s 758 mmHg 60%
05:00 -4°C° 0 mm 3 m/s 758 mmHg 59%
06:00 -4°C° 0 mm 3 m/s 758 mmHg 58%
07:00 -4°C° 0 mm 3 m/s 758 mmHg 58%
08:00 -2°C° 0 mm 4 m/s 758 mmHg 52%
09:00 -1°C° 0 mm 5 m/s 758 mmHg 46%
10:00 +1°C° 0 mm 5 m/s 758 mmHg 40%
11:00 +1°C° 0 mm 5 m/s 757 mmHg 40%
12:00 +2°C° 0 mm 5 m/s 757 mmHg 41%
13:00 +3°C° 0 mm 5 m/s 756 mmHg 41%
14:00 +3°C° 0 mm 5 m/s 756 mmHg 43%
15:00 +3°C° 0 mm 5 m/s 755 mmHg 44%
16:00 +2°C° 0 mm 5 m/s 754 mmHg 46%
17:00 +1°C° 0 mm 4 m/s 754 mmHg 51%
18:00 0°C° 0 mm 4 m/s 754 mmHg 56%
19:00 -1°C° 0 mm 3 m/s 753 mmHg 61%
20:00 -1°C° 0 mm 3 m/s 753 mmHg 62%
21:00 -2°C° 0 mm 3 m/s 753 mmHg 64%
22:00 -2°C° 0 mm 3 m/s 753 mmHg 65%
23:00 -2°C° 0 mm 3 m/s 752 mmHg 65%
Arată mai mult

Formular de consimțământ

Meteoprog și furnizorii noștri de servicii pot stoca și accesa date personale, precum cookies, identificatori de dispozitiv sau alte tehnologii similare pe dispozitivul dumneavoastră și procesa astfel de date pentru a personaliza conținutul și reclamele, dar și pentru a oferi caracteristici de social media și pentru a analiza traficul.

  • Stocarea și/sau accesarea informațiilor pe dispozitivul dumneavoastră

    Cookies, identificatori de dispozitiv sau alte informații pot fi stocate sau accesate pe dispozitiv în scopurile indicate mai sus.

  • Reclame și conținut personalizat, evaluarea reclamelor și a conținutului, informații despre audiențe și dezvoltarea produselor

    Reclamele și conținutul pot fi personalizate pe baza unui profil. Pot fi adăugate date suplimentare pentru a personaliza mai bine reclamele și conținutul. Performanța reclamelor și conținutului poate fi măsurată. Pot fi obținute informații despre utilizatorii care au văzut reclamele și conținutul. Aceste date pot fi utilizate pentru a dezvolta sau îmbunătăți experiența utilizatorilor, sistemele și software-ul.

Dând clic pe ‘Sunt de acord’, permiteți utilizarea cookie-urilor menționate, a identificatorilor de dispozitiv, balizelor web sau altor tehnologii similare. Setările pot fi modificate din browser-ul dispozitivului dumneavoastră.

În anumite scopuri, interesele legitime pot prima asupra consimțământului. Puteți citi mai multe informații în acest sens în Politica privind Confidențialitatea Datelor și Cookie.